Flag for Norway Weather past 2 weeks in Hommersåk, Norway

Now
57 °F

Passing clouds.


Feels Like: 56 °F
Forecast: 56 / 64 °F
Wind: 6 mph from Southeast

Location: Stavanger / Sola

Current Time: Aug 30, 2015 at 11:05:00 PM

Latest Report: Aug 30, 2015 at 10:20 PM


Visibility: N/A

Pressure: 30.09 "Hg

Humidity: 88%

Dew point: 54 °F

Location of HommersåkLocation

Historic Weather in Hommersåk — Graph

°F

Hommersåk temperature yesterday

Maximum temperature yesterday: 64 °F (at 12:50 PM)
Minimum temperature yesterday: 55 °F (at 4:50 AM)
Average temperature yesterday: 61 °F

Past Weeks' High & Low Weather Summary

 TemperatureHumidityPressure
High79 °F (Aug 23, 2:20 PM)100% (Aug 15, 10:20 PM)30.24 "Hg (Aug 15, 10:20 PM)
Low54 °F (Aug 28, 2:50 AM)34% (Aug 19, 4:20 PM)29.47 "Hg (Aug 27, 1:20 PM)
Average66 °F68%29.94 "Hg
* Reported Aug 15 9:20 PM — Aug 30 9:20 PM, Hommersåk, Weather by CustomWeather, © 2015

Note: Actual official high and low records may vary slightly from our data, if they occured in-between our weather recording intervals... More about our weather records

Advertising

Hommersåk weather history for previous 24 hours

 ConditionsComfort  
Time TempWeatherWind HumidityBarometerVisibility
9:20 PM
Sun, Aug 30
59 °FScattered clouds.5 mph88%30.09 "HgN/A
8:50 PM59 °FScattered clouds.3 mph88%30.09 "HgN/A
8:20 PM61 °FScattered clouds.3 mph83%30.07 "HgN/A
7:50 PM63 °FScattered clouds.6 mph77%30.07 "HgN/A
7:20 PM63 °FScattered clouds.8 mph77%30.07 "HgN/A
6:50 PM63 °FScattered clouds.9 mph77%30.07 "HgN/A
6:20 PM63 °FScattered clouds.8 mph73%30.07 "HgN/A
5:50 PM63 °FScattered clouds.10 mph77%30.09 "HgN/A
5:20 PM64 °FScattered clouds.10 mph73%30.09 "HgN/A
4:50 PM64 °FScattered clouds.13 mph73%30.09 "HgN/A
4:20 PM64 °FScattered clouds.13 mph73%30.09 "HgN/A
3:50 PM66 °FScattered clouds.15 mph64%30.09 "HgN/A
3:20 PM66 °FScattered clouds.15 mph64%30.09 "HgN/A
2:50 PM66 °FScattered clouds.14 mph68%30.09 "HgN/A
2:20 PM66 °FScattered clouds.14 mph68%30.07 "HgN/A
1:50 PM66 °FScattered clouds.15 mph68%30.07 "HgN/A
1:20 PM66 °FPassing clouds.14 mph68%30.07 "HgN/A
12:50 PM64 °FPassing clouds.15 mph68%30.07 "HgN/A
12:20 PM66 °FScattered clouds.12 mph68%30.07 "HgN/A
11:50 AM64 °FScattered clouds.12 mph73%30.07 "HgN/A
11:20 AM64 °FScattered clouds.12 mph73%30.07 "HgN/A
10:50 AM64 °FScattered clouds.10 mph78%30.07 "HgN/A
10:20 AM63 °FScattered clouds.12 mph77%30.07 "HgN/A
9:50 AM63 °FPassing clouds.10 mph83%30.07 "HgN/A
9:20 AM61 °FPassing clouds.9 mph88%30.07 "HgN/A
8:50 AM59 °FPassing clouds.8 mph94%30.04 "HgN/A
8:20 AM59 °FScattered clouds.9 mph94%30.04 "HgN/A
7:50 AM57 °FScattered clouds.8 mph94%30.04 "HgN/A
7:20 AM57 °FPassing clouds.7 mph94%30.04 "HgN/A
6:50 AM55 °FPassing clouds.6 mph94%30.04 "HgN/A
6:20 AM55 °FPassing clouds.5 mph100%30.04 "HgN/A
5:50 AM55 °FPassing clouds.6 mph94%30.04 "HgN/A
4:50 AM57 °FPassing clouds.8 mph94%30.04 "HgN/A
3:50 AM57 °FPartly cloudy.7 mph94%30.04 "HgN/A
2:50 AM59 °FPartly cloudy.6 mph88%30.04 "HgN/A
1:50 AM59 °FPartly cloudy.5 mph88%30.04 "HgN/A
1:20 AM59 °FPartly cloudy.6 mph88%30.04 "HgN/A
12:50 AM59 °FPartly cloudy.7 mph88%30.04 "HgN/A
12:20 AM61 °FPassing clouds.9 mph83%30.04 "HgN/A
11:50 PM
Sat, Aug 29
61 °FPartly cloudy.10 mph83%30.01 "HgN/A
Weather by CustomWeather, © 2015

See weather overviewHow to use our weather pages